[[{"header":{"parameterUnit":"m.s-1","parameterCategory":1,"la1":30.2991,"la2":30.254,"lo1":-89.0895,"lo2":-89.0444,"dy":0.0017,"dx":0.0017,"nx":28,"ny":28,"refTime":"2023-10-01T03:00:00:Z","depth":0,"parameterNumber":2,"parameterNumberName":"U-component_of_WINDS"},"data":[0,0,0,0,0,0,0,0,0,0,0,0,0,0,0,0,0,0,0,0,0,0,0,0,0,0,0,0,0,0,0,0,0,0,0,0,0,0,0,0,0,0,0,0,0,0,0,0,0,0,0,0,0,0,0,0,0,0,-5.6689,-5.6689,0,-5.6684,-5.6683,-5.6683,-5.6531,-5.6527,-5.6523,-5.6519,-5.6516,-5.6519,-5.6523,0,0,0,0,0,0,0,0,0,0,0,0,0,-5.6572,-5.6575,-5.6689,-5.6689,-5.6689,-5.6684,-5.6683,-5.6683,-5.6531,-5.6527,-5.6522,-5.6517,-5.6515,-5.6519,-5.6523,0,0,0,0,0,0,0,0,0,0,0,0,0,-5.6601,-5.6576,-5.6689,-5.6613,-5.6606,-5.6684,-5.6683,-5.6683,-5.6532,-5.6526,-5.6521,-5.6515,-5.6513,-5.6518,-5.6524,-5.6675,0,0,-5.654,-5.6542,0,0,0,0,0,0,0,0,-5.6599,-5.6605,-5.6624,-5.6618,-5.661,-5.6602,-5.6641,-5.6681,-5.6534,-5.656,-5.6519,-5.6512,-5.6549,-5.6551,-5.6563,-5.6675,-5.6675,-5.6541,-5.6544,-5.6546,-5.6548,0,0,0,0,0,0,0,-5.6598,-5.6605,-5.6687,-5.6625,-5.6616,-5.658,-5.6577,-5.6648,-5.6588,-5.6558,-5.6546,-5.6548,-5.6544,-5.6559,-5.6562,-5.6675,-5.654,-5.6545,-5.6549,-5.6551,-5.6913,-5.692,0,0,0,0,0,0,-5.6606,-5.6604,-5.6687,-5.6687,-5.659,-5.6587,-5.6584,-5.6611,-5.6587,-5.6578,-5.6553,-5.6541,-5.6552,-5.6556,-5.6561,-5.6739,-5.6546,-5.6551,-5.6554,-5.6907,-5.6915,-5.6922,0,0,0,0,0,0,-5.6604,-5.6615,-5.6687,-5.6642,-5.6649,-5.6595,-5.6626,-5.6614,-5.6627,-5.6583,-5.6572,-5.6578,-5.6548,-5.6554,-5.6648,-5.6737,-5.6554,-5.6558,-5.69,-5.6909,-5.6918,-5.7095,0,0,0,0,0,0,-5.6601,-5.6615,-5.6671,-5.6645,-5.6652,-5.6774,-5.6632,-5.6618,-5.6637,-5.6621,-5.6604,-5.6595,-5.6544,-5.6641,-5.6654,-5.6741,-5.6563,-5.6891,-5.6904,-5.6915,-5.7081,-5.7109,-5.7133,0,0,0,0,0,-5.6597,-5.6721,-5.6675,-5.6685,-5.6721,-5.6779,-5.6783,-5.6721,-5.6644,-5.6701,-5.6673,-5.6596,-5.6725,-5.6652,-5.6665,-5.6755,-5.6886,-5.69,-5.6914,-5.7069,-5.7103,-5.7133,0,0,0,0,0,0,-5.6759,-5.6716,-5.6664,-5.6782,-5.6786,-5.6753,-5.6823,-5.6759,-5.6784,-5.6769,-5.669,-5.6688,-5.6795,-5.6784,-5.6704,-5.6902,-5.6792,-5.681,-5.6905,-5.6937,-5.6963,-5.6964,-5.6567,0,0,0,0,0,-5.6808,-5.6859,-5.6818,-5.6927,-5.6931,-5.6878,-5.6901,-5.6852,-5.6852,-5.6853,-5.6832,-5.6836,-5.6878,-5.6907,-5.6942,-5.7078,-5.7074,-5.7147,-5.7173,-5.7195,-5.7211,-5.7285,-5.7317,-5.6969,-5.6969,-5.6969,0,0,-5.6911,-5.6893,-5.693,-5.6959,-5.6956,-5.7011,-5.6879,-5.6943,-5.6984,-5.6863,-5.6951,-5.6936,-5.6936,-5.7053,-5.7103,-5.7047,-5.7306,-5.7213,-5.7231,-5.7235,-5.7303,-5.7336,-5.7365,-5.6979,-5.6977,-5.6976,0,0,-5.7126,-5.7117,-5.7207,-5.7207,-5.7204,-5.7168,-5.719,-5.7168,-5.7153,-5.724,-5.7152,-5.72,-5.7272,-5.7276,-5.7288,-5.7508,-5.7439,-5.7522,-5.7659,-5.7732,-5.7759,-5.7783,-5.7863,-5.7893,-5.7538,-5.7539,-5.7539,0,-5.7254,-5.7332,-5.7262,-5.7332,-5.7348,-5.7242,-5.7334,-5.7337,-5.7347,-5.7361,-5.7298,-5.7388,-5.738,-5.7497,-5.7551,-5.7564,-5.7588,-5.7523,-5.7761,-5.7784,-5.7806,-5.7881,-5.7911,-5.7549,-5.7548,-5.7547,-5.7546,0,-5.7491,-5.7547,-5.7621,-5.7632,-5.7657,-5.7738,-5.7681,-5.7714,-5.7665,-5.7636,-5.7727,-5.7714,-5.7747,-5.7771,-5.7722,-5.7882,-5.7848,-5.7774,-5.7662,-5.785,-5.792,-5.7948,-5.7563,-5.756,-5.7557,-5.7554,0,0,-5.7807,-5.778,-5.7808,-5.7813,-5.7803,-5.7845,-5.7922,-5.7953,-5.7985,-5.7995,-5.8059,-5.8124,-5.8056,-5.807,-5.8021,-5.8085,-5.8262,-5.8003,-5.8002,-5.8053,-5.844,-5.8496,-5.8531,-5.8216,-5.8221,-5.8225,-5.8441,0,-5.8016,-5.8144,-5.8085,-5.8221,-5.8273,-5.8174,-5.8241,-5.8243,-5.8219,-5.826,-5.8233,-5.8282,-5.8188,-5.8196,-5.8254,-5.8228,-5.8339,-5.8212,-5.8276,-5.828,-5.8281,-5.8567,-5.8626,-5.8829,-5.8467,-5.8472,-5.8475,0,-5.8276,-5.8298,-5.844,-5.8422,-5.8442,-5.8503,-5.8528,-5.8569,-5.857,-5.8548,-5.8565,-5.8502,-5.8578,-5.8467,-5.8572,-5.8487,-5.851,-5.8502,-5.8508,-5.8512,-5.8389,-5.858,-5.8893,-5.8924,-5.8517,-5.8514,-5.8511,0,-5.8495,-5.8559,-5.8653,-5.866,-5.8641,-5.8687,-5.8682,-5.8677,-5.87,-5.8722,-5.8737,-5.8768,-5.8786,-5.8812,-5.8761,-5.8684,-5.8874,-5.8758,-5.8859,-5.8861,-5.8904,-5.8902,-5.9226,-5.8918,-5.8917,-5.8917,-5.8916,0,-5.8735,-5.8826,-5.8751,-5.8809,-5.8908,-5.8839,-5.894,-5.8924,-5.8921,-5.8975,-5.8891,-5.8944,-5.8872,-5.8919,-5.8879,-5.8973,-5.8981,-5.8967,-5.8956,-5.8975,-5.8978,-5.899,-5.8975,-5.8925,-5.8923,-5.8921,-5.892,0,-5.8995,-5.8948,-5.9044,-5.9019,-5.9015,-5.909,-5.9069,-5.9122,-5.9092,-5.9162,-5.9175,-5.9129,-5.9179,-5.913,-5.9178,-5.9151,-5.9278,-5.9245,-5.9278,-5.9269,-5.9374,-5.9365,-5.9718,-5.9761,-5.9424,-5.9428,-5.943,0,-5.9152,-5.9219,-5.9202,-5.9232,-5.9232,-5.9281,-5.9305,-5.924,-5.9269,-5.9277,-5.933,-5.9373,-5.9404,-5.949,-5.9462,-5.9499,-5.9467,-5.9588,-5.9472,-5.9491,-5.9471,-5.9468,-5.9476,-5.9612,-5.9616,-5.962,-5.9622,0,-5.9436,-5.941,-5.9446,-5.9477,-5.9507,-5.9527,-5.9541,-5.9571,-5.9505,-5.9542,-5.9592,-5.9617,-5.9666,-5.9711,-5.9739,-5.9735,-5.967,-5.9659,-5.9685,-5.9706,-5.9723,-5.9717,-5.9344,-5.9651,-5.9648,-5.9646,-5.9645,-5.9644,-5.9649,-5.9706,-5.9703,-5.9748,-5.9752,-5.9768,-5.9817,-5.9794,-5.9835,-5.9869,-5.9829,-5.9892,-5.9894,-5.9925,-5.9929,-5.9978,-5.9927,-5.9964,-5.9974,-5.9984,-6.0,-5.9714,-5.9983,-5.9982,-5.9981,-5.9981,-5.998,0,-5.993,-5.9924,-5.9966,-5.9988,-6.0024,-5.9958,-5.9971,-6.0006,-6.0062,-6.0069,-6.0101,-6.0161,-6.0205,-6.0181,-6.0219,-6.0264,-6.0235,-6.0276,-6.0273,-6.0273,-6.0043,-6.0017,-6.0299,-6.0299,-6.0299,-6.0299,-6.0299,-6.0299,-6.008,-6.0173,-6.0148,-6.0242,-6.0235,-6.0295,-6.0309,-6.0324,-6.0329,-6.0399,-6.0435,-6.0419,-6.0414,-6.0452,-6.049,-6.0482,-6.0501,-6.0554,-6.0535,-6.032,-6.0289,-6.0259,-6.0235,-6.0558,-6.0558,-6.0761,-6.0763,-6.0765]},{"header":{"parameterUnit":"m.s-1","parameterCategory":1,"la1":30.2991,"la2":30.254,"lo1":-89.0895,"lo2":-89.0444,"dy":0.0017,"dx":0.0017,"nx":28,"ny":28,"refTime":"2023-10-01T03:00:00:Z","depth":0,"parameterNumber":3,"parameterNumberName":"V-component_of_WINDS"},"data":[0,0,0,0,0,0,0,0,0,0,0,0,0,0,0,0,0,0,0,0,0,0,0,0,0,0,0,0,0,0,0,0,0,0,0,0,0,0,0,0,0,0,0,0,0,0,0,0,0,0,0,0,0,0,0,0,0,0,-0.5838,-0.5838,0,-0.5828,-0.5828,-0.5828,-0.5781,-0.578,-0.5779,-0.5778,-0.5771,-0.5771,-0.5772,0,0,0,0,0,0,0,0,0,0,0,0,0,-0.5818,-0.5819,-0.5838,-0.5838,-0.5838,-0.5828,-0.5828,-0.5828,-0.5781,-0.578,-0.5778,-0.5777,-0.577,-0.5771,-0.5772,0,0,0,0,0,0,0,0,0,0,0,0,0,-0.5819,-0.5819,-0.5838,-0.5813,-0.5811,-0.5828,-0.5828,-0.5828,-0.5781,-0.578,-0.5778,-0.5776,-0.577,-0.5771,-0.5772,-0.5814,0,0,-0.5776,-0.5777,0,0,0,0,0,0,0,0,-0.5819,-0.582,-0.5817,-0.5815,-0.5812,-0.5804,-0.5818,-0.5823,-0.5782,-0.5793,-0.5777,-0.5776,-0.5783,-0.5783,-0.5785,-0.5813,-0.5813,-0.5776,-0.5777,-0.5778,-0.5778,0,0,0,0,0,0,0,-0.5819,-0.582,-0.5834,-0.5817,-0.5814,-0.5803,-0.5801,-0.5819,-0.5797,-0.5791,-0.5788,-0.5787,-0.5782,-0.5784,-0.5785,-0.5813,-0.5776,-0.5778,-0.5778,-0.5779,-0.5875,-0.5876,0,0,0,0,0,0,-0.5822,-0.5821,-0.5834,-0.5834,-0.5812,-0.5805,-0.5803,-0.5808,-0.5797,-0.5794,-0.5789,-0.5785,-0.5783,-0.5783,-0.5784,-0.5833,-0.5778,-0.5779,-0.578,-0.5873,-0.5875,-0.5877,0,0,0,0,0,0,-0.5822,-0.5824,-0.5835,-0.5826,-0.5827,-0.5807,-0.5813,-0.5809,-0.5811,-0.5795,-0.5791,-0.5795,-0.5781,-0.5782,-0.5807,-0.5832,-0.5779,-0.5781,-0.5871,-0.5874,-0.5876,-0.593,0,0,0,0,0,0,-0.5822,-0.5824,-0.584,-0.5827,-0.5827,-0.5857,-0.5815,-0.581,-0.5813,-0.5809,-0.58,-0.5797,-0.578,-0.5805,-0.5808,-0.5833,-0.5782,-0.5869,-0.5872,-0.5875,-0.5926,-0.5934,-0.5941,0,0,0,0,0,-0.5821,-0.5856,-0.5841,-0.5843,-0.5846,-0.5858,-0.5859,-0.5838,-0.5815,-0.5831,-0.582,-0.5797,-0.5828,-0.5808,-0.5811,-0.5836,-0.5867,-0.5871,-0.5875,-0.5922,-0.5932,-0.5941,0,0,0,0,0,0,-0.5874,-0.5854,-0.5837,-0.5868,-0.5865,-0.585,-0.587,-0.5849,-0.5853,-0.5849,-0.5823,-0.5822,-0.585,-0.5845,-0.5823,-0.5876,-0.5843,-0.5848,-0.5878,-0.5888,-0.5895,-0.5897,-0.5783,0,0,0,0,0,-0.5888,-0.5899,-0.5882,-0.5911,-0.591,-0.589,-0.5895,-0.5879,-0.5875,-0.5874,-0.5865,-0.5864,-0.5873,-0.5879,-0.5887,-0.5923,-0.5922,-0.5942,-0.595,-0.5956,-0.5962,-0.5982,-0.5991,-0.589,-0.589,-0.589,0,0,-0.592,-0.591,-0.5919,-0.5921,-0.5917,-0.593,-0.589,-0.5905,-0.5915,-0.5877,-0.5899,-0.5892,-0.5889,-0.5919,-0.5933,-0.5916,-0.5989,-0.5961,-0.5967,-0.5969,-0.5987,-0.5996,-0.6005,-0.5893,-0.5892,-0.5892,0,0,-0.5984,-0.5977,-0.6001,-0.5998,-0.5991,-0.5977,-0.5983,-0.5971,-0.5965,-0.5986,-0.5958,-0.5969,-0.5985,-0.5984,-0.5986,-0.6047,-0.6027,-0.605,-0.6091,-0.6111,-0.6119,-0.6126,-0.615,-0.6158,-0.6055,-0.6055,-0.6055,0,-0.6025,-0.6043,-0.6017,-0.6034,-0.6036,-0.6,-0.6024,-0.6022,-0.6019,-0.6022,-0.6003,-0.6022,-0.6017,-0.6047,-0.6062,-0.6064,-0.607,-0.6053,-0.6119,-0.6126,-0.6132,-0.6155,-0.6164,-0.6058,-0.6058,-0.6057,-0.6057,0,-0.6093,-0.6106,-0.6126,-0.6123,-0.6127,-0.6147,-0.6125,-0.6132,-0.6115,-0.6103,-0.6126,-0.6118,-0.6123,-0.6128,-0.6112,-0.6157,-0.6147,-0.6124,-0.6092,-0.6146,-0.6166,-0.6174,-0.6062,-0.6061,-0.606,-0.606,0,0,-0.6194,-0.6174,-0.6182,-0.618,-0.617,-0.6179,-0.6198,-0.6202,-0.6209,-0.6207,-0.6224,-0.6237,-0.6216,-0.6217,-0.62,-0.6217,-0.6268,-0.6192,-0.6192,-0.6208,-0.6318,-0.6337,-0.6347,-0.6253,-0.6254,-0.6255,-0.6319,0,-0.6257,-0.6288,-0.6264,-0.63,-0.6312,-0.6276,-0.6293,-0.6288,-0.6277,-0.6286,-0.6274,-0.6284,-0.6254,-0.6255,-0.627,-0.6259,-0.629,-0.6253,-0.627,-0.6271,-0.6275,-0.6358,-0.6378,-0.6439,-0.6327,-0.6328,-0.6329,0,-0.6336,-0.6337,-0.6373,-0.6359,-0.6363,-0.6379,-0.638,-0.6388,-0.6383,-0.6373,-0.6374,-0.6352,-0.637,-0.6336,-0.6362,-0.6337,-0.6342,-0.6337,-0.6339,-0.6342,-0.6305,-0.6366,-0.6457,-0.6468,-0.6341,-0.634,-0.6339,0,-0.6408,-0.6418,-0.6441,-0.644,-0.6424,-0.6436,-0.643,-0.6422,-0.6426,-0.6427,-0.6429,-0.6433,-0.6436,-0.6439,-0.6419,-0.6396,-0.6448,-0.6411,-0.6442,-0.6443,-0.6457,-0.6457,-0.6554,-0.6456,-0.6456,-0.6455,-0.6455,0,-0.6483,-0.6507,-0.6473,-0.6488,-0.6514,-0.6486,-0.6512,-0.6503,-0.6496,-0.6509,-0.6477,-0.649,-0.6461,-0.6471,-0.6455,-0.648,-0.648,-0.6474,-0.6471,-0.6479,-0.648,-0.6484,-0.648,-0.6458,-0.6457,-0.6457,-0.6456,0,-0.6569,-0.6547,-0.6571,-0.6553,-0.6548,-0.6569,-0.6554,-0.6567,-0.6552,-0.6569,-0.6571,-0.6549,-0.6559,-0.6538,-0.6545,-0.6535,-0.657,-0.6558,-0.6572,-0.6569,-0.6602,-0.66,-0.6706,-0.6719,-0.6611,-0.6612,-0.6613,0,-0.662,-0.6638,-0.6621,-0.6627,-0.6622,-0.6632,-0.6635,-0.6607,-0.6612,-0.6606,-0.662,-0.6626,-0.6631,-0.6648,-0.6634,-0.6639,-0.6629,-0.6665,-0.663,-0.6637,-0.6632,-0.6632,-0.6635,-0.6674,-0.6675,-0.6676,-0.6677,0,-0.6713,-0.6701,-0.6706,-0.6707,-0.6712,-0.6711,-0.6709,-0.6716,-0.6686,-0.6693,-0.6702,-0.6705,-0.6712,-0.672,-0.6721,-0.6716,-0.6693,-0.6688,-0.6696,-0.6706,-0.6714,-0.6712,-0.6595,-0.6687,-0.6686,-0.6685,-0.6685,-0.6684,-0.6785,-0.6799,-0.6789,-0.6796,-0.6791,-0.6789,-0.6801,-0.6787,-0.6793,-0.6796,-0.6779,-0.6792,-0.6785,-0.6784,-0.6781,-0.6791,-0.6775,-0.6786,-0.6789,-0.6793,-0.6799,-0.671,-0.6791,-0.6791,-0.679,-0.679,-0.679,0,-0.6878,-0.6869,-0.6876,-0.6873,-0.6878,-0.6853,-0.6849,-0.6856,-0.6867,-0.6861,-0.6866,-0.6876,-0.6883,-0.6868,-0.6873,-0.6884,-0.6873,-0.6886,-0.6887,-0.6886,-0.6812,-0.6806,-0.6895,-0.6895,-0.6895,-0.6895,-0.6895,-0.6895,-0.6928,-0.695,-0.6937,-0.6957,-0.6948,-0.6959,-0.6959,-0.6958,-0.6953,-0.6966,-0.6971,-0.696,-0.6951,-0.6955,-0.696,-0.6955,-0.696,-0.6977,-0.6969,-0.6901,-0.6891,-0.6881,-0.6876,-0.6978,-0.6978,-0.7042,-0.7043,-0.7043]}]]